Date String (YYYY-MM-DD hh:mm:ss) UTC,Instrument flags,Ambient pressure (hPa),Sample flow (lpm),Bypass flow (lpm),Sample temperature (°C),Ambient temperature (°C),ASC tube jacket temperature (°C),LED temperature (°C),Box temperature (°C),Sample RH (%),Span deviation,Mass concentration (μg/m³),Mass concentration (μg/m³),Mass concentration (μg/m³)
DateTimeUTC,F1_M11,P_M11,Q1_M11,Q2_M11,T1_M11,T2_M11,T3_M11,T4_M11,T5_M11,U1_M11,ZSPAN_M11,X2_M11,X0_M11,X1_M11
2023-02-10 01:00:00,,0835.0,5.01,0.00,22.5,21.1,00.0,31.3,24.2,07.4,0000.0,0002.52,0005.69,0001.95
2023-02-10 01:01:00,,0834.9,4.96,0.00,22.6,22.0,00.0,31.3,24.5,07.4,0000.0,0002.48,0005.63,0001.90
2023-02-10 01:02:00,,0834.9,4.98,0.00,22.7,22.8,00.0,31.3,24.7,07.4,0000.0,0002.47,0005.65,0001.87
2023-02-10 01:03:00,,0834.9,5.00,0.00,22.7,22.6,00.0,31.4,24.7,07.4,0000.0,0002.46,0006.68,0001.84
2023-02-10 01:04:00,,0834.8,5.01,0.00,22.7,22.2,00.0,31.4,24.5,07.4,0000.0,0002.42,0007.72,0001.79
2023-02-10 01:05:00,,0834.9,5.02,0.00,22.7,21.8,00.0,31.5,24.4,07.4,0000.0,0002.46,0007.77,0001.78
2023-02-10 01:06:00,,0834.9,5.00,0.00,22.7,21.5,00.0,31.5,24.3,07.5,0000.0,0002.48,0007.74,0001.78
2023-02-10 01:07:00,,0834.9,5.06,0.00,22.6,21.3,00.0,31.5,24.3,07.5,0000.0,0002.49,0007.76,0001.76
2023-02-10 01:08:00,,0834.9,5.03,0.00,22.6,21.1,00.0,31.5,24.2,07.5,0000.0,0002.47,0007.66,0001.74
2023-02-10 01:09:00,,0834.9,5.02,0.00,22.6,21.0,00.0,31.5,24.2,07.5,0000.0,0002.46,0007.65,0001.74
2023-02-10 01:10:00,,0835.0,5.00,0.00,22.5,20.8,00.0,31.5,24.1,07.5,0000.0,0002.52,0006.91,0001.73
2023-02-10 01:11:00,,0835.0,4.99,0.00,22.5,20.7,00.0,31.4,24.1,07.5,0000.0,0002.51,0006.70,0001.73
2023-02-10 01:12:00,,0835.0,5.04,0.00,22.4,20.6,00.0,31.4,24.0,07.6,0000.0,0002.52,0007.19,0001.72
2023-02-10 01:13:00,,0835.0,5.02,0.00,22.4,20.5,00.0,31.4,24.0,07.6,0000.0,0002.52,0007.12,0001.72
2023-02-10 01:14:00,,0835.0,4.99,0.00,22.4,20.5,00.0,31.4,24.0,07.6,0000.0,0002.53,0006.42,0001.72
2023-02-10 01:15:00,,0835.0,5.03,0.00,22.4,20.5,00.0,31.4,24.0,07.6,0000.0,0002.54,0004.84,0001.73
2023-02-10 01:16:00,,0835.1,5.02,0.00,22.3,20.6,00.0,31.3,24.0,07.6,0000.0,0002.53,0004.92,0001.74
2023-02-10 01:17:00,,0835.1,5.00,0.00,22.3,20.6,00.0,31.3,24.0,07.6,0000.0,0002.52,0005.06,0001.76
2023-02-10 01:18:00,,0835.1,4.95,0.00,22.3,20.7,00.0,31.3,24.0,07.6,0000.0,0002.54,0005.13,0001.79
2023-02-10 01:19:00,,0835.2,5.04,0.00,22.3,20.7,00.0,31.3,24.0,07.6,0000.0,0002.59,0005.26,0001.83
2023-02-10 01:20:00,,0835.1,4.96,0.00,22.3,20.7,00.0,31.3,24.0,07.7,0000.0,0002.63,0005.29,0001.86
2023-02-10 01:21:00,,0835.1,5.05,0.00,22.3,20.6,00.0,31.3,24.0,07.8,0000.0,0002.59,0005.90,0001.89
2023-02-10 01:22:00,,0835.1,5.04,0.00,22.3,20.6,00.0,31.3,24.0,07.8,0000.0,0002.56,0007.91,0001.89
2023-02-10 01:23:00,,0835.1,5.00,0.00,22.3,20.5,00.0,31.2,23.9,07.8,0000.0,0002.56,0008.03,0001.91
2023-02-10 01:24:00,,0835.0,5.02,0.00,22.3,20.4,00.0,31.2,23.9,07.9,0000.0,0002.57,0008.15,0001.93
2023-02-10 01:25:00,,0835.0,4.99,0.00,22.2,20.3,00.0,31.2,23.8,07.9,0000.0,0002.56,0008.39,0001.93
2023-02-10 01:26:00,,0835.0,5.05,0.00,22.2,20.2,00.0,31.2,23.7,08.0,0000.0,0002.53,0008.63,0001.91
2023-02-10 01:27:00,,0835.1,4.96,0.00,22.2,20.9,00.0,31.1,23.9,08.0,0000.0,0002.53,0008.57,0001.90
2023-02-10 01:28:00,,0835.2,5.01,0.00,22.3,21.9,00.0,31.1,24.2,08.0,0000.0,0002.52,0008.49,0001.87
2023-02-10 01:29:00,,0835.2,5.01,0.00,22.4,22.4,00.0,31.1,24.4,07.9,0000.0,0002.47,0008.41,0001.83
2023-02-10 01:30:00,,0835.2,5.01,0.00,22.4,22.0,00.0,31.2,24.3,07.9,0000.0,0002.41,0008.35,0001.79
2023-02-10 01:31:00,,0835.2,5.01,0.00,22.4,21.5,00.0,31.2,24.2,08.0,0000.0,0002.34,0008.31,0001.75
2023-02-10 01:32:00,,0835.2,4.98,0.00,22.4,21.1,00.0,31.2,24.1,07.9,0000.0,0002.28,0007.98,0001.73
2023-02-10 01:33:00,,0835.2,4.97,0.00,22.4,20.8,00.0,31.2,24.0,08.0,0000.0,0002.25,0005.89,0001.73
2023-02-10 01:34:00,,0835.3,4.96,0.00,22.3,20.6,00.0,31.2,23.9,08.0,0000.0,0002.25,0006.00,0001.71
2023-02-10 01:35:00,,0835.2,5.04,0.00,22.3,20.4,00.0,31.2,23.8,08.1,0000.0,0002.27,0007.30,0001.69
2023-02-10 01:36:00,,0835.3,4.94,0.00,22.2,20.3,00.0,31.2,23.8,08.0,0000.0,0002.26,0007.74,0001.68
2023-02-10 01:37:00,,0835.2,5.02,0.00,22.2,20.2,00.0,31.2,23.8,08.1,0000.0,0002.24,0007.57,0001.69
2023-02-10 01:38:00,,0835.3,5.01,0.00,22.2,20.1,00.0,31.1,23.8,08.3,0000.0,0002.21,0007.83,0001.68
2023-02-10 01:39:00,,0835.3,5.01,0.00,22.1,20.0,00.0,31.1,23.7,08.4,0000.0,0002.21,0008.41,0001.67
2023-02-10 01:40:00,,0835.3,4.98,0.00,22.1,20.0,00.0,31.1,23.7,08.5,0000.0,0002.19,0008.46,0001.65
2023-02-10 01:41:00,,0835.4,4.93,0.00,22.0,19.9,00.0,31.1,23.6,08.6,0000.0,0002.22,0008.52,0001.62
2023-02-10 01:42:00,,0835.3,5.02,0.00,22.0,19.8,00.0,31.0,23.5,08.6,0000.0,0002.20,0008.93,0001.60
2023-02-10 01:43:00,,0835.4,4.98,0.00,22.0,20.2,00.0,31.0,23.6,08.5,0000.0,0002.22,0009.55,0001.57
2023-02-10 01:44:00,,0835.4,5.04,0.00,22.1,21.4,00.0,31.0,23.9,08.7,0000.0,0002.21,0009.32,0001.54
2023-02-10 01:45:00,,0835.4,5.00,0.00,22.2,22.4,00.0,31.0,24.1,08.7,0000.0,0002.23,0009.25,0001.53
2023-02-10 01:46:00,,0835.4,4.99,0.00,22.3,22.3,00.0,31.0,24.2,08.7,0000.0,0002.23,0008.36,0001.51
2023-02-10 01:47:00,,0835.4,5.01,0.00,22.2,21.6,00.0,31.0,24.0,08.8,0000.0,0002.19,0007.67,0001.50
2023-02-10 01:48:00,,0835.4,4.98,0.00,22.2,21.0,00.0,31.1,23.8,08.9,0000.0,0002.19,0007.37,0001.50
2023-02-10 01:49:00,,0835.3,5.01,0.00,22.1,20.5,00.0,31.1,23.6,08.9,0000.0,0002.20,0007.08,0001.51
2023-02-10 01:50:00,,0835.4,5.03,0.00,22.0,20.1,00.0,31.0,23.5,08.9,0000.0,0002.29,0006.71,0001.52
2023-02-10 01:51:00,,0835.4,4.98,0.00,22.0,19.9,00.0,31.0,23.5,08.9,0000.0,0002.33,0007.45,0001.55
2023-02-10 01:52:00,,0835.4,5.03,0.00,21.9,19.7,00.0,31.0,23.4,08.9,0000.0,0002.36,0007.55,0001.58
2023-02-10 01:53:00,,0835.4,5.06,0.00,21.9,19.7,00.0,31.0,23.4,08.9,0000.0,0002.39,0007.26,0001.62
2023-02-10 01:54:00,,0835.4,5.04,0.00,21.9,19.7,00.0,30.9,23.4,08.9,0000.0,0002.40,0006.56,0001.65
2023-02-10 01:55:00,,0835.4,5.01,0.00,21.8,19.7,00.0,30.9,23.4,08.9,0000.0,0002.46,0007.51,0001.69
2023-02-10 01:56:00,,0835.4,5.02,0.00,21.8,20.3,00.0,30.9,23.5,09.0,0000.0,0002.52,0007.58,0001.71
2023-02-10 01:57:00,,0835.4,4.98,0.00,21.9,21.5,00.0,30.8,23.8,09.0,0000.0,0002.58,0008.27,0001.72
2023-02-10 01:58:00,,0835.5,5.00,0.00,22.1,22.5,00.0,30.8,24.0,09.0,0000.0,0002.63,0008.97,0001.72
2023-02-10 01:59:00,,0835.5,5.00,0.00,22.1,22.1,00.0,30.9,24.0,09.0,0000.0,0002.62,0009.05,0001.70
